Location: ???? ??? ????
(31.0107°N, 31.6506°E)
Time: 14:47:20
(UTC+00:00)

Daily predictions for brighter satellites

Satellite Brightness Start Highest point End
(mag) Time Altitude Azimuth Time Altitude Azimuth Time Altitude Azimuth
Cosmos 1500 Rocket 3.8 15:12:47 10° N 15:17:11 79° W 15:21:37 10° S
H-2A R/B 2.8 15:13:47 10° S 15:18:11 77° WSW 15:22:28 10° NNW
X-37B 1.9 15:17:26 10° SSW 15:20:09 27° SE 15:22:52 10° ENE
Envisat 3.4 15:15:34 10° S 15:20:37 71° WSW 15:25:41 10° NNW
Abrixas rocket 3.6 15:19:19 10° N 15:21:12 16° NNE 15:23:04 10° ENE
DELTA 2 R/B (1) 4.0 15:16:51 10° WNW 15:22:22 67° SSW 15:27:51 10° SE
Cosmos 1782 4.4 15:21:33 10° SE 15:23:51 15° E 15:26:10 10° NE
NOAA 12 4.1 15:19:15 10° SSE 15:24:32 69° ENE 15:29:49 10° N
Cosmos 2278 Rocket 2.2 15:22:57 10° NNW 15:28:39 76° ENE 15:34:18 10° SSE
SL-24 R/B - RUBIN 2 4.4 15:23:40 10° NNW 15:29:29 48° ENE 15:34:36 10° SE
Meteor 1-4 Rocket 4.0 15:30:11 10° SE 15:32:50 19° E 15:35:17 11° NE
Cosmos 773 Rocket 4.4 15:30:11 10° S 15:35:05 42° E 15:40:02 10° NNE
H-2A R/B 4.0 15:40:38 10° NE 15:40:38 10° NE 15:40:41 10° NE
Okean-O 4.1 15:36:21 10° ESE 15:38:58 16° ENE 15:41:36 10° NNE
SAR-Lupe-1 4.5 15:35:41 10° NNE 15:39:05 41° E 15:42:29 10° S
COSMO-SKYMED 1 2.7 15:36:41 10° NNE 15:40:57 54° E 15:45:11 10° S
ERS-2 2.1 15:37:27 10° NNE 15:41:06 85° WNW 15:44:45 10° SSW
Lacrosse 5 rocket 1.7 15:40:05 10° SW 15:43:43 50° NW 15:47:14 10° NNE
Cosmos 783 Rocket 4.5 15:38:26 10° S 15:43:43 80° ESE 15:49:01 10° NNE
CZ-4B R/B 3.5 15:38:30 10° S 15:43:51 72° WSW 15:49:11 10° NNW
Cosmos 2218 Rocket 4.4 15:39:36 10° NNE 15:45:15 37° E 15:50:53 10° SSE
CZ-2D R/B 4.3 15:42:29 10° SE 15:45:31 23° ENE 15:48:35 10° NNE
AQUARIUS 4.5 15:41:52 10° S 15:46:20 72° WSW 15:50:49 10° NNW
Sich 1 2.9 15:42:08 10° N 15:46:30 77° E 15:50:49 10° S
Okean O Rocket 2.0 15:43:59 10° S 15:48:16 66° WSW 15:52:36 10° NNW
Cosmos 2237 Rocket 4.2 15:44:00 10° WSW 15:48:39 26° WNW 15:53:21 10° N
NOAA 11 4.1 15:44:12 10° SSE 15:49:35 77° ENE 15:55:00 10° N
CZ-3A R/B 3.5 15:46:49 10° WSW 15:50:44 25° S 15:52:45 12° SE
Cosmos 1151 Rocket 2.9 15:48:47 10° S 15:53:03 72° E 15:57:20 10° N
Cosmos 2366 rocket 4.2 15:49:09 10° N 15:55:01 44° E 16:00:48 10° SSE
Cosmos 1689 Rocket 2.1 15:52:55 15° NNE 15:55:09 54° E 15:58:00 10° S
SL-23 DEB 4.3 15:52:38 10° WSW 15:55:56 55° NW 15:59:42 15° NE
FengYun 1-2 T 4.3 15:52:15 10° SSE 15:57:49 84° WSW 16:03:22 10° NNW
Cosmos 1943 4.4 15:54:02 10° SSE 15:58:08 21° E 15:59:06 20° E
CZ-4 R/B 3.4 15:55:54 10° SE 16:02:51 - NNE 15:56:13 12° ESE
GENESIS II 4.0 15:57:37 10° NNW 16:01:31 66° ENE 16:05:19 10° SE
Cosmos 1328 Rocket 3.4 15:57:38 10° S 16:01:55 80° E 16:06:14 10° N
Cosmos 1666 Rocket 3.4 16:01:47 10° N 16:06:12 80° E 16:10:38 10° S
Cosmos 489 Rocket 4.4 16:00:46 10° S 16:06:51 62° ESE 16:12:57 10° NNE
TIMED 4.5 16:02:56 10° S 16:07:12 59° ESE 16:10:01 21° NNE
Cosmos 1939 Rocket 2.6 16:05:30 10° SSE 16:09:19 79° ENE 16:13:11 10° N
CZ-2C R/B 3.0 16:20:22 10° SSE 16:25:30 55° ENE 16:30:23 10° N
Cosmos 1538 Rocket 3.9 16:20:34 10° S 16:25:52 79° ESE 16:29:24 22° NNE
Nadezhda 3 Rocket 4.0 16:27:51 10° SSE 16:33:59 56° E 16:38:05 22° NNE
Cosmos 1943 Rocket 3.1 16:29:25 10° N 16:32:39 29° NNE 16:32:39 29° NNE
MINOTAUR IV R/B 4.4 16:30:13 10° SSW 16:34:42 87° ESE 16:35:56 48° NNE
Cosmos 1633 Rocket 3.8 16:31:43 10° NNW 16:35:58 53° W 16:40:11 10° S
Cosmos 2297 3.6 16:31:17 10° NNW 16:36:58 72° ENE 16:42:39 10° SSE
Cosmos 2285 Rocket 3.9 16:30:40 10° NNW 16:37:03 73° ENE 16:43:20 10° SSE
SL-16 R/B 3.9 16:32:14 10° SW 16:37:10 30° WNW 16:42:07 10° N
ATLAS 3B CENTAUR R/B 2.7 16:35:32 10° WSW 16:36:20 20° WSW 16:36:20 20° WSW
USA 267 3.9 16:37:37 33° NE 16:37:51 33° NE 16:43:31 10° NNW
Meteor 2-6 Rocket 4.1 16:35:20 10° S 16:40:59 65° E 16:42:40 44° NNE
Orbus 7S 4.4 16:43:06 10° WSW 16:45:11 31° SW 16:45:11 31° SW
CZ-2C R/B 4.5 16:51:08 16° SSE 16:51:08 16° SSE 16:52:17 10° SSE
Meteor 1-14 Rocket 4.2 16:43:03 10° N 16:49:01 77° E 16:54:59 10° SSE
Cosmos 2228 Rocket 3.9 16:48:39 10° S 16:51:42 42° S 16:51:42 42° S
X-37B 3.2 16:53:57 10° W 16:55:21 20° WNW 16:55:21 20° WNW
YAOGAN 1 4.2 16:53:02 10° S 17:01:44 10° NNW 16:54:44 23° S
USA 281 3.2 16:59:23 10° SSE 17:05:56 78° WSW 17:12:31 10° NNW
Sakura Rocket 4.4 17:02:10 10° SW 17:05:19 36° SSW 17:05:19 36° SSW
Helios 1A Rocket 4.3 17:04:02 10° S 17:11:26 11° NNW 17:11:37 10° NNW
Meteor 1-10 Rocket 4.2 17:05:14 10° S 17:10:34 77° SW 17:10:34 77° SW
Okean-O 4.1 17:11:03 10° SSW 17:15:05 35° W 17:19:10 10° NNW
H-2A R/B 3.8 17:12:13 10° S 17:21:16 20° NNW 17:22:50 10° NNW
CENTAUR R/B 3.9 17:19:19 10° SSW 17:21:01 21° S 17:21:01 21° S
CZ-4 R/B 4.2 17:31:18 10° SW 17:38:53 - NW 17:32:14 14° SW
NOSS 3-2 (A) 4.4 17:35:05 10° SW 17:38:30 38° WSW 17:38:30 38° WSW
Cosmos 1943 4.4 17:36:32 10° SW 17:41:00 38° W 17:41:00 38° W
